CW6666 Weather Reports


Display with metric or nautical units.
time (UTC)temp
F
wind
direction
speed
MPH
gust
MPH
rain 1hr
in
rain 24hr
in
rain mn
in
humidity
%
barometer
mb
20141022152329 77 40 0.0 0.0 0.00 0.00 0.00 92 1006.9
20141022151835 77 40 0.0 0.0 0.00 0.00 0.00 92 1006.9
20141022151346 77 40 0.0 0.0 0.00 0.00 0.00 92 1006.9
20141022150832 77 40 0.0 0.0 0.00 0.00 0.00 92 1006.9
20141022150338 77 40 0.0 0.0 0.00 0.00 0.00 92 1006.9
20141022145826 77 40 0.0 0.0 0.00 0.00 0.00 92 1006.9
20141022145341 77 40 0.0 0.0 0.00 0.00 0.00 92 1006.9
20141022144847 77 40 0.0 0.0 0.00 0.00 0.00 92 1006.9
20141022144338 77 40 0.0 0.0 0.00 0.00 0.00 92 1007.1
20141022143844 77 40 0.0 0.0 0.00 0.00 0.00 92 1007.1
20141022143338 77 40 0.0 0.0 0.00 0.00 0.00 92 1007.1
20141022142846 77 40 0.0 0.0 0.00 0.00 0.00 92 1007.3
20141022142337 77 40 0.0 0.0 0.00 0.00 0.00 92 1007.3
20141022141843 77 40 0.0 0.0 0.00 0.00 0.00 92 1007.3
20141022141334 77 40 0.0 0.0 0.00 0.00 0.00 92 1007.3
20141022140840 77 40 0.0 0.0 0.00 0.00 0.00 92 1007.3
20141022140331 78 40 0.0 0.0 0.00 0.00 0.00 92 1007.3
20141022135833 78 40 0.0 0.0 0.00 0.00 0.00 92 1007.4
20141022135413 78 40 0.0 0.0 0.00 0.00 0.00 92 1007.4
20141022134848 78 40 0.0 0.0 0.00 0.00 0.00 92 1007.4
20141022134423 78 40 0.0 0.0 0.00 0.00 0.00 92 1007.5
20141022133404 78 40 0.0 0.0 0.00 0.00 0.00 92 1007.5
20141022132855 78 40 0.0 0.0 0.00 0.00 0.00 92 1007.5
20141022132335 78 40 0.0 0.0 0.00 0.00 0.00 92 1007.5
20141022130908 78 40 0.0 0.0 0.00 0.00 0.00 92 1007.5
20141022130341 78 40 0.0 0.0 0.00 0.00 0.00 92 1007.5
20141022125829 77 40 0.0 0.0 0.00 0.00 0.00 92 1007.5
20141022125403 77 40 0.0 0.0 0.00 0.00 0.00 92 1007.5
20141022124838 77 40 0.0 0.0 0.00 0.00 0.00 92 1007.5
20141022124414 77 40 0.0 0.0 0.00 0.00 0.00 92 1007.5
20141022123848 77 40 0.0 0.0 0.00 0.00 0.00 92 1007.5
20141022123345 77 40 0.0 0.0 0.00 0.00 0.00 92 1007.5
20141022122828 77 40 0.0 0.0 0.00 0.00 0.00 92 1007.6
20141022122409 77 40 0.0 0.0 0.00 0.00 0.00 92 1007.6
20141022121841 77 40 0.0 0.0 0.00 0.00 0.00 92 1007.6
20141022120913 78 40 0.0 0.0 0.00 0.00 0.00 92 1007.5
20141022120356 78 40 0.0 0.0 0.00 0.00 0.00 92 1007.5
20141022115829 78 40 0.0 0.0 0.00 0.00 0.00 92 1007.5
20141022115403 78 40 0.0 2.0 0.00 0.00 0.00 91 1007.5
20141022114844 78 40 1.0 2.0 0.00 0.00 0.00 91 1007.5
20141022114418 78 40 0.0 1.0 0.00 0.00 0.00 91 1007.4
20141022113904 78 40 0.0 0.0 0.00 0.00 0.00 91 1007.4
20141022113355 78 40 0.0 0.0 0.00 0.00 0.00 91 1007.4
20141022112846 78 40 0.0 0.0 0.00 0.00 0.00 91 1007.4
20141022112424 78 40 0.0 0.0 0.00 0.00 0.00 91 1007.4
20141022111906 78 40 0.0 2.0 0.00 0.00 0.00 91 1007.4
20141022111339 78 40 1.0 2.0 0.00 0.00 0.00 91 1007.2
20141022110833 78 40 0.0 0.0 0.00 0.00 0.00 91 1007.2
20141022110417 78 40 0.0 0.0 0.00 0.00 0.00 91 1007.2
20141022105853 78 40 0.0 0.0 0.00 0.00 0.00 91 1007.3
20141022105343 78 40 0.0 0.0 0.00 0.00 0.00 91 1007.3
20141022104845 78 40 0.0 0.0 0.00 0.00 0.00 91 1007.3
20141022104413 78 40 0.0 0.0 0.00 0.00 0.00 91 1007.0
20141022103855 79 40 0.0 0.0 0.00 0.00 0.00 90 1007.0
20141022102925 79 40 0.0 0.0 0.00 0.00 0.00 90 1007.0
20141022102351 79 40 0.0 0.0 0.00 0.00 0.00 90 1007.0
20141022101842 79 40 0.0 0.0 0.00 0.00 0.00 90 1007.0
20141022101417 79 40 0.0 0.0 0.00 0.00 0.00 90 1007.1
20141022100908 79 40 0.0 0.0 0.00 0.00 0.00 90 1007.1
20141022100343 79 40 0.0 0.0 0.00 0.00 0.00 90 1007.1
20141022095359 79 40 0.0 0.0 0.00 0.00 0.00 90 1006.9
20141022094856 79 40 0.0 0.0 0.00 0.00 0.00 89 1006.9
20141022094423 79 40 0.0 0.0 0.00 0.00 0.00 89 1006.9
20141022093901 79 40 0.0 0.0 0.00 0.00 0.00 89 1006.9
20141022092918 80 40 0.0 2.0 0.00 0.00 0.00 88 1006.5
20141022092352 80 40 0.0 2.0 0.00 0.00 0.00 88 1006.5
20141022091830 80 40 0.0 2.0 0.00 0.00 0.00 87 1006.5
20141022091407 81 40 0.0 2.0 0.00 0.00 0.00 87 1006.5
20141022090844 81 40 0.0 0.0 0.00 0.00 0.00 86 1006.5
20141022090415 81 40 0.0 0.0 0.00 0.00 0.00 86 1006.5
20141022085857 82 40 0.0 0.0 0.00 0.00 0.00 85 1006.4
20141022085425 82 40 0.0 4.0 0.00 0.00 0.00 84 1006.4
20141022084855 83 40 1.0 6.0 0.00 0.00 0.00 84 1006.4
20141022084331 83 40 5.0 6.0 0.00 0.00 0.00 83 1006.3
20141022083916 84 41 4.0 6.0 0.00 0.00 0.00 83 1006.3
20141022083405 84 57 5.0 6.0 0.00 0.00 0.00 83 1006.3
20141022082844 84 57 4.0 6.0 0.00 0.00 0.00 83 1006.2
20141022081359 84 48 4.0 7.0 0.00 0.00 0.00 82 1006.0
20141022080836 84 71 5.0 5.0 0.00 0.00 0.00 82 1006.0
20141022080412 84 71 4.0 5.0 0.00 0.00 0.00 83 1006.0
20141022075837 84 71 5.0 7.0 0.00 0.00 0.00 82 1006.0
20141022075404 84 55 5.0 7.0 0.00 0.00 0.00 82 1006.0
20141022074849 84 64 6.0 7.0 0.00 0.00 0.00 82 1006.0
20141022074417 84 61 5.0 7.0 0.00 0.00 0.00 82 1005.9
20141022073909 84 60 6.0 7.0 0.00 0.00 0.00 82 1005.9
20141022073335 84 67 6.0 10.0 0.00 0.00 0.00 81 1005.9
20141022072840 84 54 7.0 10.0 0.00 0.00 0.00 81 1005.9
20141022072422 84 54 7.0 9.0 0.00 0.00 0.00 81 1005.9
20141022071902 85 56 6.0 8.0 0.00 0.00 0.00 81 1005.9
20141022071341 85 59 7.0 9.0 0.00 0.00 0.00 80 1005.9
20141022070833 85 57 6.0 10.0 0.00 0.00 0.00 81 1005.9
20141022070401 85 56 8.0 10.0 0.00 0.00 0.00 80 1005.9
20141022065842 85 56 5.0 7.0 0.00 0.00 0.00 80 1005.8
20141022065426 85 65 6.0 7.0 0.00 0.00 0.00 79 1005.8
20141022064855 85 51 6.0 8.0 0.00 0.00 0.00 79 1005.8
20141022064426 85 45 6.0 8.0 0.00 0.00 0.00 79 1005.7
20141022063357 86 54 5.0 8.0 0.00 0.00 0.00 78 1005.7
20141022062842 86 60 6.0 7.0 0.00 0.00 0.00 79 1005.4
20141022061914 86 61 4.0 6.0 0.00 0.00 0.00 80 1005.4
20141022061359 86 61 4.0 6.0 0.00 0.00 0.00 79 1005.4
20141022060827 86 60 5.0 7.0 0.00 0.00 0.00 78 1005.4
20141022055904 86 57 5.0 6.0 0.00 0.00 0.00 80 1005.4
20141022055348 86 57 4.0 5.0 0.00 0.00 0.00 78 1005.4
20141022054844 86 70 5.0 5.0 0.00 0.00 0.00 79 1005.4
20141022053907 86 71 4.0 6.0 0.00 0.00 0.00 79 1005.4
20141022053338 86 71 5.0 5.0 0.00 0.00 0.00 79 1005.4
20141022052927 86 72 4.0 5.0 0.00 0.00 0.00 80 1005.4
20141022051350 86 53 4.0 6.0 0.00 0.00 0.00 80 1005.3
20141022050843 86 63 4.0 5.0 0.00 0.00 0.00 80 1005.3
20141022050422 86 58 3.0 5.0 0.00 0.00 0.00 79 1005.3
20141022045856 86 56 4.0 5.0 0.00 0.00 0.00 81 1005.3
20141022045426 86 55 3.0 6.0 0.00 0.00 0.00 79 1005.3
20141022044844 86 71 4.0 6.0 0.00 0.00 0.00 79 1005.3
20141022044416 86 71 4.0 4.0 0.00 0.00 0.00 80 1005.4
20141022043853 86 90 3.0 5.0 0.00 0.00 0.00 79 1005.4
20141022043422 86 71 3.0 5.0 0.00 0.00 0.00 80 1005.4
20141022042906 86 71 3.0 4.0 0.00 0.00 0.00 80 1005.4
20141022042329 86 71 4.0 5.0 0.00 0.00 0.00 80 1005.4
20141022041828 86 71 3.0 5.0 0.00 0.00 0.00 79 1005.4
20141022041414 87 92 1.0 5.0 0.00 0.00 0.00 80 1005.5
20141022040911 87 92 3.0 5.0 0.00 0.00 0.00 80 1005.5
20141022040332 86 107 3.0 4.0 0.00 0.00 0.00 80 1005.5
20141022035351 86 114 4.0 6.0 0.00 0.00 0.00 80 1005.8
20141022034826 86 102 3.0 5.0 0.00 0.00 0.00 80 1005.8
20141022034416 86 89 2.0 5.0 0.00 0.00 0.00 80 1005.9
20141022033849 86 78 4.0 5.0 0.00 0.00 0.00 81 1005.9
20141022033427 86 73 4.0 5.0 0.00 0.00 0.00 81 1005.9
20141022032856 86 91 3.0 5.0 0.00 0.00 0.00 80 1005.9
20141022032353 86 87 4.0 5.0 0.00 0.00 0.00 82 1005.9
20141022031832 86 94 3.0 3.0 0.00 0.00 0.00 81 1005.9
20141022031408 86 95 2.0 5.0 0.00 0.00 0.00 80 1006.0
20141022030836 86 94 5.0 5.0 0.00 0.00 0.00 82 1006.0
20141022025405 86 87 6.0 7.0 0.00 0.00 0.00 81 1006.0
20141022024845 86 67 3.0 5.0 0.00 0.00 0.00 83 1006.0
20141022024406 86 89 4.0 6.0 0.00 0.00 0.00 81 1006.0
20141022023836 86 82 3.0 6.0 0.00 0.00 0.00 82 1006.0
20141022023412 85 68 2.0 6.0 0.00 0.00 0.00 82 1006.0
20141022022851 86 94 4.0 6.0 0.00 0.00 0.00 84 1006.1
20141022022330 85 75 4.0 6.0 0.00 0.00 0.00 83 1006.1
20141022021829 85 78 5.0 6.0 0.00 0.00 0.00 84 1006.1
20141022021419 85 70 4.0 7.0 0.00 0.00 0.00 83 1006.2
20141022020911 85 74 5.0 7.0 0.00 0.00 0.00 83 1006.2
20141022020355 85 65 5.0 7.0 0.00 0.00 0.00 82 1006.2
20141022015832 85 63 5.0 9.0 0.00 0.00 0.00 83 1006.4
20141022015411 85 44 6.0 9.0 0.00 0.00 0.00 83 1006.4
20141022014846 86 52 7.0 9.0 0.00 0.00 0.00 83 1006.4
20141022013401 85 44 5.0 7.0 0.00 0.00 0.00 82 1006.7
20141022012828 85 49 5.0 7.0 0.00 0.00 0.00 83 1007.0
20141022010912 85 42 5.0 7.0 0.00 0.00 0.00 83 1007.1
20141022010334 85 39 4.0 6.0 0.00 0.00 0.00 83 1007.1
20141022005909 85 40 5.0 6.0 0.00 0.00 0.00 82 1007.3
20141022005331 85 28 4.0 6.0 0.00 0.00 0.00 84 1007.3
20141022004921 85 47 5.0 7.0 0.00 0.00 0.00 83 1007.3
20141022004352 85 49 6.0 8.0 0.00 0.00 0.00 83 1007.5
20141022003825 85 48 6.0 8.0 0.00 0.00 0.00 83 1007.5
20141022003407 85 57 7.0 9.0 0.00 0.00 0.00 84 1007.5
20141022002848 85 43 5.0 9.0 0.00 0.00 0.00 84 1007.6
20141022001918 85 58 5.0 8.0 0.00 0.00 0.00 84 1007.6
20141022001351 85 49 5.0 8.0 0.00 0.00 0.00 84 1007.9
20141022000837 85 50 6.0 8.0 0.00 0.00 0.00 83 1007.9
20141021235855 85 61 7.0 7.0 0.00 0.00 0.00 83 1007.9
20141021235350 85 61 6.0 9.0 0.00 0.00 0.00 83 1007.9
20141021234835 85 53 9.0 9.0 0.00 0.00 0.00 84 1007.9
20141021233858 85 55 7.0 9.0 0.00 0.00 0.00 84 1007.9
20141021233346 85 57 8.0 9.0 0.00 0.00 0.00 83 1007.9
20141021232829 85 75 4.0 7.0 0.00 0.00 0.00 83 1007.8
20141021232407 85 62 5.0 7.0 0.00 0.00 0.00 83 1007.8
20141021231841 85 59 6.0 7.0 0.00 0.00 0.00 84 1007.8
20141021231422 85 60 4.0 7.0 0.00 0.00 0.00 84 1007.9
20141021230400 85 57 6.0 7.0 0.00 0.00 0.00 83 1007.9
20141021225833 84 57 5.0 6.0 0.00 0.00 0.00 83 1007.8
20141021224913 84 57 4.0 7.0 0.00 0.01 0.00 84 1007.8
20141021224346 84 57 6.0 7.0 0.00 0.01 0.00 85 1007.8
20141021223828 84 62 4.0 6.0 0.00 0.01 0.00 84 1007.8
20141021223401 84 62 4.0 7.0 0.00 0.01 0.00 85 1007.8
20141021222840 84 62 6.0 9.0 0.00 0.01 0.00 85 1007.7
20141021222414 84 67 5.0 9.0 0.00 0.01 0.00 86 1007.7
20141021221855 83 51 6.0 8.0 0.00 0.01 0.00 86 1007.7
20141021221358 83 51 6.0 7.0 0.00 0.01 0.00 87 1007.5
20141021220858 83 59 5.0 6.0 0.00 0.01 0.00 87 1007.5
20141021220352 82 68 4.0 7.0 0.00 0.01 0.00 88 1007.5
20141021215833 82 64 6.0 7.0 0.00 0.01 0.00 88 1007.4
20141021215405 81 48 6.0 7.0 0.00 0.02 0.00 90 1007.4
20141021214835 81 58 4.0 6.0 0.00 0.02 0.00 91 1007.4
20141021214404 80 79 4.0 4.0 0.00 0.02 0.00 92 1007.4
20141021213844 79 38 0.0 0.0 0.00 0.02 0.00 93 1007.4
20141021212833 79 263 0.0 0.0 0.00 0.02 0.00 93 1007.3
20141021212403 78 263 0.0 0.0 0.00 0.02 0.00 94 1007.3
20141021211832 78 263 0.0 0.0 0.00 0.02 0.00 94 1007.3
20141021211416 77 263 0.0 0.0 0.00 0.02 0.00 94 1007.3
20141021210851 77 263 0.0 0.0 0.00 0.02 0.00 94 1007.3
20141021210358 76 263 0.0 0.0 0.00 0.02 0.00 94 1007.3
20141021205839 76 263 0.0 0.0 0.00 0.02 0.00 94 1007.0
20141021204400 75 263 0.0 0.0 0.00 0.09 0.00 94 1006.9
20141021203847 75 263 0.0 0.0 0.00 0.09 0.00 93 1006.9
20141021203414 75 263 0.0 0.0 0.00 0.09 0.00 93 1006.9
20141021202854 74 263 0.0 0.0 0.00 0.09 0.00 93 1006.8
20141021201357 74 263 0.0 0.0 0.00 0.09 0.00 94 1006.6
20141021200839 74 263 0.0 0.0 0.00 0.09 0.00 93 1006.6
20141021200423 74 263 0.0 0.0 0.00 0.09 0.00 94 1006.6
20141021195909 74 263 0.0 0.0 0.00 0.09 0.00 93 1006.5
20141021195328 74 263 0.0 0.0 0.00 0.15 0.00 93 1006.5
20141021194919 74 263 0.0 0.0 0.00 0.15 0.00 94 1006.5
20141021194354 74 263 0.0 0.0 0.00 0.15 0.00 93 1006.3
20141021193838 74 263 0.0 0.0 0.00 0.15 0.00 93 1006.3
20141021192907 74 263 0.0 0.0 0.00 0.15 0.00 93 1006.4
20141021192350 74 263 0.0 0.0 0.00 0.15 0.00 93 1006.4
20141021191833 74 263 0.0 0.0 0.00 0.15 0.00 93 1006.4
20141021191412 74 263 0.0 0.0 0.00 0.15 0.00 93 1006.0
20141021190846 74 263 0.0 0.0 0.00 0.15 0.00 93 1006.0
20141021190416 74 263 0.0 0.0 0.00 0.15 0.00 93 1006.0
20141021185838 74 263 0.0 0.0 0.00 0.15 0.00 93 1005.9
20141021184916 74 263 0.0 0.0 0.00 0.15 0.00 93 1005.9
20141021184343 74 263 0.0 0.0 0.00 0.15 0.00 93 1005.9
20141021183830 75 263 0.0 0.0 0.00 0.15 0.00 93 1005.9
20141021183411 75 263 0.0 0.0 0.00 0.15 0.00 93 1005.9
20141021182355 75 263 0.0 0.0 0.00 0.15 0.00 93 1006.0
20141021181836 75 263 0.0 0.0 0.00 0.15 0.00 93 1006.0
20141021180927 75 263 0.0 0.0 0.00 0.15 0.00 93 1005.9
20141021180353 75 263 0.0 0.0 0.00 0.15 0.00 93 1005.9
20141021175825 75 263 0.0 0.0 0.00 0.15 0.00 93 1005.9
20141021173849 75 263 0.0 0.0 0.00 0.15 0.00 93 1005.9
20141021172920 75 263 0.0 0.0 0.00 0.15 0.00 93 1005.9
20141021172335 75 263 0.0 0.0 0.00 0.15 0.00 93 1005.9
20141021171826 75 263 0.0 0.0 0.00 0.15 0.00 93 1005.9
20141021171417 75 263 0.0 0.0 0.00 0.15 0.00 93 1005.9
20141021170906 75 263 0.0 0.0 0.00 0.15 0.00 93 1005.9
20141021170331 75 263 0.0 0.0 0.00 0.15 0.00 93 1005.9
20141021165916 75 263 0.0 0.0 0.00 0.15 0.00 93 1006.0
20141021165345 75 263 0.0 0.0 0.00 0.15 0.00 93 1006.0
20141021164831 75 263 0.0 0.0 0.00 0.15 0.00 93 1006.0
20141021164358 75 263 0.0 0.0 0.00 0.15 0.00 93 1006.3
20141021163841 75 263 0.0 0.0 0.00 0.15 0.00 93 1006.3
20141021161402 75 263 0.0 0.0 0.00 0.15 0.00 93 1006.4
20141021160848 75 263 0.0 0.0 0.00 0.15 0.00 93 1006.4
20141021160417 75 263 0.0 0.0 0.00 0.15 0.00 93 1006.4
20141021155836 75 263 0.0 0.0 0.00 0.15 0.00 93 1006.4
20141021155347 75 263 0.0 0.0 0.00 0.15 0.00 93 1006.4
20141021154833 75 263 0.0 0.0 0.00 0.15 0.00 93 1006.4
20141021154344 75 263 0.0 0.0 0.00 0.15 0.00 93 1006.6
20141021153831 75 263 0.0 0.0 0.00 0.15 0.00 93 1006.6
20141021153345 76 263 0.0 0.0 0.00 0.15 0.00 93 1006.6
20141021152832 76 263 0.0 0.0 0.00 0.15 0.00 93 1006.7